• In Germany
  • List of Countries
  • For 7 days
  • Water Temperature
  • Satellite Maps
  • Weather Map
  • Weather Widgets
  • user-avatar
    Login

    Hourly Weather Bihać

    Today, 18 August, Friday

    Time Temperature Precipitation Wind Pressure Humidity
    00:00 +19°C° 0 mm 2 mps 712 mmHg 59%
    01:00 +18°C° 0 mm 2 mps 712 mmHg 62%
    02:00 +18°C° 0 mm 2 mps 712 mmHg 62%
    03:00 +18°C° 0 mm 2 mps 712 mmHg 63%
    04:00 +17°C° 0 mm 2 mps 712 mmHg 64%
    05:00 +19°C° 0 mm 2 mps 712 mmHg 62%
    06:00 +20°C° 0 mm 2 mps 712 mmHg 59%
    07:00 +21°C° 0 mm 2 mps 713 mmHg 57%
    08:00 +25°C° 0 mm 1 mps 713 mmHg 49%
    09:00 +27°C° 0 mm 1 mps 713 mmHg 42%
    10:00 +30°C° 0 mm 1 mps 714 mmHg 34%
    11:00 +31°C° 0 mm 1 mps 714 mmHg 32%
    12:00 +32°C° 0 mm 2 mps 714 mmHg 29%
    13:00 +34°C° 0 mm 2 mps 713 mmHg 27%
    14:00 +34°C° 0 mm 2 mps 713 mmHg 28%
    15:00 +32°C° 0 mm 2 mps 713 mmHg 29%
    16:00 +32°C° 0 mm 2 mps 712 mmHg 30%
    17:00 +29°C° 0 mm 1 mps 712 mmHg 38%
    18:00 +26°C° 0 mm 1 mps 711 mmHg 46%
    19:00 +21°C° 0 mm 0 mps 711 mmHg 55%
    20:00 +23°C° 0 mm 1 mps 711 mmHg 56%
    21:00 +22°C° 0 mm 1 mps 711 mmHg 57%
    22:00 +21°C° 0 mm 1 mps 711 mmHg 58%
    23:00 +21°C° 0 mm 1 mps 710 mmHg 58%

    Tomorrow, 19 August, Saturday

    Time Temperature Precipitation Wind Pressure Humidity
    00:00 +21°C° 0 mm 1 mps 710 mmHg 58%
    01:00 +20°C° 0 mm 1 mps 710 mmHg 58%
    02:00 +19°C° 0 mm 2 mps 710 mmHg 58%
    03:00 +19°C° 0 mm 2 mps 709 mmHg 58%
    04:00 +19°C° 0 mm 2 mps 709 mmHg 58%
    05:00 +20°C° 0 mm 2 mps 709 mmHg 57%
    06:00 +21°C° 0 mm 2 mps 710 mmHg 55%
    07:00 +24°C° 0 mm 2 mps 710 mmHg 54%
    08:00 +26°C° 0 mm 2 mps 710 mmHg 48%
    09:00 +28°C° 0 mm 3 mps 711 mmHg 42%
    10:00 +31°C° 0 mm 3 mps 711 mmHg 36%
    11:00 +31°C° 0 mm 3 mps 711 mmHg 35%
    12:00 +33°C° 0 mm 3 mps 711 mmHg 34%
    13:00 +33°C° 0 mm 3 mps 711 mmHg 34%
    14:00 +33°C° 0 mm 3 mps 710 mmHg 36%
    15:00 +31°C° 0 mm 3 mps 710 mmHg 38%
    16:00 +30°C° 0 mm 3 mps 710 mmHg 40%
    17:00 +27°C° 0.7 mm 3 mps 710 mmHg 52%
    18:00 +25°C° 0.7 mm 3 mps 710 mmHg 64%
    19:00 +21°C° 0.7 mm 3 mps 710 mmHg 76%
    20:00 +19°C° 1.3 mm 4 mps 710 mmHg 80%
    21:00 +18°C° 1.3 mm 4 mps 711 mmHg 84%
    22:00 +17°C° 1.3 mm 4 mps 711 mmHg 87%
    23:00 +17°C° 1.9 mm 4 mps 711 mmHg 88%

    Day after tomorrow, 20 August, Sunday

    Time Temperature Precipitation Wind Pressure Humidity
    00:00 +15°C° 1.9 mm 4 mps 711 mmHg 89%
    01:00 +15°C° 1.9 mm 5 mps 711 mmHg 89%
    02:00 +15°C° 1 mm 4 mps 711 mmHg 90%
    03:00 +15°C° 1 mm 4 mps 710 mmHg 91%
    04:00 +14°C° 1 mm 4 mps 710 mmHg 91%
    05:00 +15°C° 0.4 mm 4 mps 711 mmHg 90%
    06:00 +15°C° 0.4 mm 4 mps 711 mmHg 89%
    07:00 +15°C° 0.4 mm 4 mps 711 mmHg 88%
    08:00 +16°C° 0 mm 5 mps 712 mmHg 84%
    09:00 +17°C° 0 mm 5 mps 712 mmHg 79%
    10:00 +19°C° 0 mm 5 mps 712 mmHg 74%
    11:00 +19°C° 0 mm 5 mps 712 mmHg 70%
    12:00 +20°C° 0 mm 5 mps 712 mmHg 65%
    13:00 +21°C° 0 mm 5 mps 712 mmHg 60%
    14:00 +21°C° 0 mm 5 mps 712 mmHg 57%
    15:00 +22°C° 0 mm 4 mps 712 mmHg 55%
    16:00 +22°C° 0 mm 4 mps 712 mmHg 52%
    17:00 +20°C° 0 mm 4 mps 712 mmHg 57%
    18:00 +19°C° 0 mm 4 mps 712 mmHg 63%
    19:00 +17°C° 0 mm 4 mps 711 mmHg 68%
    20:00 +17°C° 0 mm 4 mps 712 mmHg 69%
    21:00 +15°C° 0 mm 4 mps 712 mmHg 71%
    22:00 +14°C° 0 mm 4 mps 712 mmHg 72%
    23:00 +14°C° 0 mm 5 mps 712 mmHg 70%

    21 August, Monday

    Time Temperature Precipitation Wind Pressure Humidity
    00:00 +14°C° 0 mm 5 mps 712 mmHg 68%
    01:00 +13°C° 0 mm 5 mps 712 mmHg 65%
    02:00 +13°C° 0 mm 5 mps 712 mmHg 67%
    03:00 +12°C° 0 mm 5 mps 712 mmHg 69%
    04:00 +12°C° 0 mm 5 mps 712 mmHg 70%
    05:00 +13°C° 0 mm 5 mps 712 mmHg 68%
    06:00 +14°C° 0 mm 5 mps 713 mmHg 66%
    07:00 +14°C° 0 mm 5 mps 713 mmHg 64%
    08:00 +16°C° 0 mm 5 mps 713 mmHg 58%
    09:00 +19°C° 0 mm 5 mps 714 mmHg 52%
    10:00 +21°C° 0 mm 5 mps 714 mmHg 46%
    11:00 +21°C° 0 mm 5 mps 714 mmHg 42%
    12:00 +22°C° 0 mm 5 mps 714 mmHg 38%
    13:00 +23°C° 0 mm 5 mps 713 mmHg 34%
    14:00 +23°C° 0 mm 5 mps 713 mmHg 34%
    15:00 +23°C° 0 mm 4 mps 713 mmHg 34%
    16:00 +23°C° 0 mm 4 mps 713 mmHg 34%
    17:00 +21°C° 0 mm 4 mps 713 mmHg 41%
    18:00 +18°C° 0 mm 3 mps 713 mmHg 49%
    19:00 +16°C° 0 mm 2 mps 712 mmHg 56%
    20:00 +15°C° 0 mm 2 mps 713 mmHg 58%
    21:00 +15°C° 0 mm 2 mps 713 mmHg 59%
    22:00 +14°C° 0 mm 2 mps 713 mmHg 61%
    23:00 +13°C° 0 mm 2 mps 713 mmHg 61%

    22 August, Tuesday

    Time Temperature Precipitation Wind Pressure Humidity
    00:00 +13°C° 0 mm 2 mps 713 mmHg 62%
    01:00 +13°C° 0 mm 2 mps 713 mmHg 62%
    02:00 +12°C° 0 mm 2 mps 713 mmHg 63%
    03:00 +12°C° 0 mm 2 mps 713 mmHg 64%
    04:00 +12°C° 0 mm 2 mps 713 mmHg 65%
    05:00 +13°C° 0 mm 2 mps 713 mmHg 62%
    06:00 +14°C° 0 mm 2 mps 714 mmHg 60%
    07:00 +16°C° 0 mm 2 mps 714 mmHg 57%
    08:00 +18°C° 0 mm 2 mps 714 mmHg 50%
    09:00 +20°C° 0 mm 2 mps 715 mmHg 44%
    10:00 +23°C° 0 mm 2 mps 715 mmHg 37%
    11:00 +24°C° 0 mm 2 mps 715 mmHg 34%
    12:00 +26°C° 0 mm 2 mps 715 mmHg 32%
    13:00 +27°C° 0 mm 2 mps 714 mmHg 30%
    14:00 +26°C° 0 mm 2 mps 714 mmHg 31%
    15:00 +26°C° 0 mm 2 mps 714 mmHg 32%
    16:00 +26°C° 0 mm 3 mps 713 mmHg 32%
    17:00 +23°C° 0 mm 2 mps 713 mmHg 40%
    18:00 +20°C° 0 mm 2 mps 713 mmHg 48%
    19:00 +17°C° 0 mm 2 mps 712 mmHg 56%
    20:00 +17°C° 0 mm 2 mps 712 mmHg 56%
    21:00 +16°C° 0 mm 2 mps 713 mmHg 56%
    22:00 +15°C° 0 mm 2 mps 713 mmHg 55%
    23:00 +15°C° 0 mm 1 mps 712 mmHg 54%

    23 August, Wednesday

    Time Temperature Precipitation Wind Pressure Humidity
    00:00 +15°C° 0 mm 1 mps 712 mmHg 53%
    01:00 +14°C° 0 mm 1 mps 712 mmHg 52%
    02:00 +14°C° 0 mm 1 mps 712 mmHg 52%
    03:00 +14°C° 0 mm 1 mps 712 mmHg 52%
    04:00 +14°C° 0 mm 1 mps 712 mmHg 52%
    05:00 +15°C° 0 mm 1 mps 712 mmHg 50%
    06:00 +18°C° 0 mm 1 mps 712 mmHg 48%
    07:00 +19°C° 0 mm 1 mps 713 mmHg 46%
    08:00 +22°C° 0 mm 1 mps 713 mmHg 41%
    09:00 +25°C° 0 mm 1 mps 713 mmHg 36%
    10:00 +28°C° 0 mm 1 mps 714 mmHg 30%
    11:00 +29°C° 0 mm 1 mps 714 mmHg 30%
    12:00 +29°C° 0 mm 2 mps 713 mmHg 29%
    13:00 +30°C° 0 mm 2 mps 713 mmHg 29%
    14:00 +30°C° 0 mm 2 mps 713 mmHg 31%
    15:00 +29°C° 0 mm 2 mps 713 mmHg 33%
    16:00 +29°C° 0 mm 2 mps 712 mmHg 35%
    17:00 +26°C° 0 mm 1 mps 712 mmHg 44%
    18:00 +23°C° 0 mm 1 mps 712 mmHg 53%
    19:00 +20°C° 0 mm 1 mps 711 mmHg 62%
    20:00 +20°C° 0 mm 1 mps 712 mmHg 63%
    21:00 +19°C° 0 mm 1 mps 712 mmHg 65%
    22:00 +18°C° 0 mm 1 mps 712 mmHg 66%
    23:00 +18°C° 0 mm 1 mps 712 mmHg 65%
    Show more